Other Public Products
Issued by NWS Grand Forks, ND

Home | Current Version | Previous Version | Graphics & Text | Print | Product List | Glossary On
Versions: 1 2 3 4 5 6 7 8 9 10 11 12 13 14 15 16 17 18 19 20 21 22 23 24 25 26 27 28 29 30 31 32 33 34 35 36 37 38 39 40 41 42 43 44 45 46 47 48 49 50
000
FPUS83 KFGF 191910
OPUFGF
PRAIRIE TO PINES WEATHER ROUNDUP
NATIONAL WEATHER SERVICE EASTERN NORTH DAKOTA/GRAND FORKS ND
200 PM CDT THU OCT 19 2017

 **SATELLITE DATA USED TO AUGMENT SKY COVER AT AUTOMATED STATIONS**
 *****  WEATHER ACROSS EASTERN NORTH DAKOTA  *****

CITY           SKY/WX    TMP DP  RH WIND       PRES   REMARKS
GRAND FORKS    PTSUNNY   65  37  35 S15       29.77F
GRAND FORKS AF FAIR      65  36  34 S13       29.77F
GRAND CITY NWS NOT AVBL
BUXTON         NOT AVBL
DEVILS LAKE    FAIR      67  38  34 S9        29.74F
FARGO          FAIR      73  39  29 S25G31    29.80F
WAHPETON ARPT  NOT AVBL
$$

 *****  WEATHER ACROSS CENTRAL AND WESTERN NORTH DAKOTA  *****

CITY           SKY/WX    TMP DP  RH WIND       PRES   REMARKS
JAMESTOWN      FAIR      71  37  28 SW12      29.76F
BISMARCK       FAIR      73  35  25 S8        29.76F
MINOT          FAIR      75  33  21 SW13      29.68F
MINOT AFB      FAIR      75  34  22 W13       29.66F
GARRISON         N/A     70  35  27 S8        29.72F
WILLISTON      FAIR      72  36  26 SW9       29.69F
DICKINSON      FAIR      79  29  16 W12       29.74F
HETTINGER      FAIR      79  27  14 SW7       29.79F
$$

 *****  OTHER OBSERVATIONS NORTHEAST NORTH DAKOTA  *****

CITY           SKY/WX    TMP DP  RH WIND       PRES   REMARKS
WALHALLA       FAIR     N/A N/A N/A S15       29.72F
LANGDON        FAIR      63  34  34 S14G22    29.74S
CAVALIER       FAIR      61  32  33 S14       29.73F
GRAFTON        FAIR      63  34  34 S14       29.77F
CANDO          FAIR      66  34  30 S12       29.74F
FORT TOTTEN      N/A     69  35  29 S9        29.95S
ROLLA          FAIR      61  32  33 SW10      29.70F
RUGBY          FAIR      70  34  26 SW7       29.70F
 ***** THE ABOVE OBSERVATIONS ARE NON NWS ARE NOT QUALITY
        CONTROLLED AND MAY MIS-REPORT RAIN FOR SNOW...
$$

 *****  OTHER OBSERVATIONS SOUTHEAST NORTH DAKOTA *****

CITY           SKY/WX    TMP DP  RH WIND       PRES   REMARKS
COOPERSTOWN    FAIR      68  37  32 S14G20    29.77F
VALLEY CITY    FAIR      66  39  37 SW16      29.80F
OAKES          NOT AVBL
GWINNER        CLEAR     68  37  32 SW17G24   29.80F
SHEYENNE NWR     N/A     71  38  29 SW15      29.95
BUFFALO        NOT AVBL
WYNDMERE       NOT AVBL
 ***** THE ABOVE OBSERVATIONS ARE NON NWS ARE NOT QUALITY
       CONTROLLED AND MAY MIS-REPORT RAIN FOR SNOW...
$$

  *****  WEATHER ACROSS NORTHERN MINNESOTA  *****

CITY           SKY/WX    TMP DP  RH WIND       PRES   REMARKS
FLAG ISLAND    FAIR      54  32  43 SE9       29.79F
WARROAD        FAIR      66  36  32 S8        29.79F
ROSEAU         FAIR      64  34  32 S16       29.78F
HALLOCK        FAIR      63  30  29 S20       29.76F
THF RVR FALLS  FAIR      65  35  33 S15G24    29.81F
HALSTAD        NOT AVBL
FOSSTON        FAIR      66  34  30 SW22      29.83F
BAUDETTE       FAIR      63  27  25 S15G23    29.82F
WASKISH        FAIR      68  36  30 SW8       29.84F
CROOKSTON      FAIR      64  36  34 SW18G25   29.80F
$$
  *****  WEATHER ACROSS CENTRAL AND WEST MINNESOTA  *****

CITY           SKY/WX    TMP DP  RH WIND       PRES   REMARKS
BEMIDJI        FAIR      69  35  28 SW16G26   29.85F
PARK RAPIDS    LGT RAIN  71  37  28 SW20G31   29.88F
WADENA         FAIR      70  37  30 S15       29.89F
DETROIT LAKES  FAIR      68  37  32 S17G24    29.86F
MOORHEAD       FAIR      72  39  30 S14       29.81F
FERGUS FALLS   FAIR      70  41  35 S20       29.87F
ELBOW LAKE     FAIR      71  40  32 S17G23    29.89F
MORRIS MN      FAIR      73  37  27 SW23G29   29.87F
STAPLES        FAIR      68  34  28 S13G22    29.91F
WHEATON        FAIR      72  36  26 S16G24    29.86F
$$
  *****  WEATHER ELSEWHERE ACROSS MINNESOTA  *****

CITY           SKY/WX    TMP DP  RH WIND       PRES   REMARKS
DULUTH         FAIR      64  30  27 SW15      29.97F
INTRNTL FALLS  FAIR      65  25  22 VRB7      29.87F
ELY            FAIR      63  21  20 W7        29.94F
CLOQUET        FAIR      64  25  22 S13G21    29.97F
BRAINERD       FAIR      67  33  28 S16       29.93F
HIBBING        FAIR      65  29  25 VRB5G17   29.94F
ALEXANDRIA     FAIR      70  37  29 S17G24    29.93F
SAINT CLOUD    FAIR      69  34  27 S20G25    29.97F
MINNEAPOLIS    FAIR      71  34  25 S9G20     30.02F
$$

  *****  WEATHER ACROSS SOUTH DAKOTA  *****

CITY           SKY/WX    TMP DP  RH WIND       PRES   REMARKS
SIOUX FALLS    FAIR      72  51  47 S18G26    29.96F
BROOKINGS      FAIR      70  48  45 S23G29    29.93F
WATERTOWN      FAIR      69  46  43 S21G30    29.88F
HURON          FAIR      73  41  31 S17G25    29.86F
SISSETON         N/A     75  41  29 SW25G35   29.83F
ABERDEEN       FAIR      73  40  30 SW17G24   29.83F
MITCHELL       FAIR      74  46  36 S20G28    29.89F
PIERRE         FAIR      75  36  24 SW5       29.80F
MOBRIDGE       FAIR      70  44  39 SE12      29.77F
RAPID CITY     FAIR      81  24  12 SE9       29.81F
$$

  *****  SOME WEATHER IN NEARBY STATES *****

CITY           SKY/WX    TMP DP  RH WIND       PRES   REMARKS
GLASGOW MT     FAIR      78  26  14 SW14      29.64F
GREAT FALLS MT FAIR      72  15  11 SW20G33   29.64F
CHEYENNE WY    FAIR      73  15  11 SE6       30.04F
SCOTTSBLUFF NE FAIR      76  26  15 E5        29.94F
OMAHA NE       FAIR      75  53  46 S12       30.03F
DES MOINES IA  FAIR      74  48  39 SE14      30.07F
DAVENPORT IA   FAIR      71  33  24 S8        30.16F
CHICAGO IL     PTSUNNY   69  23  17 CALM      30.17F
EAU CLAIRE WI  FAIR      68  29  23 S7        30.05F
LA CROSSE WI   FAIR      69  38  32 S10       30.09F
$$

  *****  SOME NATIONAL WEATHER *****

CITY           SKY/WX    TMP DP  RH WIND       PRES   REMARKS
LA GUARDIA NY  FAIR      72  39  30 SW14      30.12F
RALEIGH NC     FAIR      75  51  43 W5        30.23F
ATLANTA GA     FAIR      74  41  30 CALM      30.25F
NEW ORLEANS LA PTSUNNY   82  70  66 NE10      30.14F
OKLAHOMA CITY  PTSUNNY   73  52  47 S16       30.11F
ALBUQUERQUE NM PTSUNNY   70  37  29 VRB5      30.12F
SALT LAKE CITY FAIR      68  32  26 N5        29.96F
LOS ANGELES CA PTSUNNY   71  62  73 W9        29.93R
BOISE ID       FAIR      72  17  12 S9        29.80F
SEATTLE WA     LGT RAIN  53  51  93 S9        29.55F FOG
$$

*** WEATHER ACROSS MANITOBA...SASKATCHEWAN AND ONTARIO ***
                ***ONTARIO***

CITY           SKY/WX    TMP DP  RH WIND       PRES   REMARKS
GERALDTON      PTSUNNY   52  32  46 W16G25    29.79R
THUNDER BAY    PTSUNNY   63  23  22 W10G21    29.90S
SIOUX LOOKOUT  CLOUDY    52  28  40 SW7       29.85F
TORONTO        MOSUNNY   70  45  40 W20G31    29.97F
BIG TROUT LK   CLOUDY    37  34  87 NW16      29.70R
PICKLE LAKE    PTSUNNY   43  27  52 W17G25    29.79R
DRYDEN         SUNNY     55  25  30 SW13G18   29.85F
KENORA         PTSUNNY   55  25  30 S10       29.82F
$$
                *** MANITOBA***

CITY           SKY/WX    TMP DP  RH WIND       PRES   REMARKS
BRANDON        CLOUDY    63  34  34 S8        29.65F
DAUPHIN        SUNNY     59  28  31 SE5       29.60F
ISLAND LAKE    PTSUNNY   37  32  81 S3        29.79R
PILOT MOUND      N/A     63  32  31 S15         N/A
THE PAS        NOT AVBL
THOMPSON       PTSUNNY   36  30  80 E6        29.74S
WINNIPEG       PTSUNNY   63  30  29 S21       29.71F
LYNN LAKE      FLURRIES  32  30  93 SE12G21   29.66F WCI  23
CHURCHILL      FLURRIES  34  30  86 NE13      29.83R WCI  25
GILLAM         PTSUNNY   36  32  87 NE8       29.77R
$$
                ***SASKATCHEWAN***

CITY           SKY/WX    TMP DP  RH WIND       PRES   REMARKS
ESTEVAN        PTSUNNY   70  34  26 SW14      29.64F
KINDERSLEY     PTSUNNY   61  39  44 SW22G30   29.45S
LLOYDMINSTER   PTSUNNY   55  30  38 VRB2      29.41S
PRINCE ALBERT  PTSUNNY   52  32  46 VRB2      29.45S
REGINA         PTSUNNY   73  27  17 W26G36    29.54F
YORKTON        SUNNY     64  34  32 S12G20    29.53F


USA.gov is the U.S. government's official web portal to all federal, state and local government web resources and services.